Vorticity
nan nan nan nan nan nan nan nan nan nan nan nan nan nan nan nan nan nan nan nan nan nan nan nan nan nan nan nan nan nan nan nan nan nan nan nan nan nan nan nan nan nan nan nan nan nan nan nan nan
nan 4 6 8 6 4 8 9 9 5 6 7 5 4 8 5 6 8 8 12 7 5 7 8 7 6 5 4 5 5 4 5 3 5 7 6 5 6 5 4 5 7 5 4 5 6 5 3 nan
nan 4 7 8 5 3 6 3 4 7 9 6 5 6 6 6 7 7 8 12 6 6 6 8 8 6 6 5 5 6 6 6 7 8 3 7 6 6 6 5 7 7 6 4 5 6 4 3 nan
nan 4 8 8 4 4 5 3 -0 4 10 8 6 5 4 8 12 11 12 7 5 6 7 9 9 7 7 6 6 5 5 6 8 7 9 7 5 5 5 7 6 7 6 6 8 4 2 4 nan
nan 9 8 5 7 8 5 4 8 7 4 7 8 7 2 5 14 13 11 5 4 6 7 11 11 7 7 7 5 6 6 7 5 5 7 6 6 11 2 4 6 8 9 8 6 4 4 6 nan
nan 9 5 8 6 6 8 10 11 11 6 5 8 9 4 10 11 6 6 9 8 8 7 10 11 8 7 7 6 7 7 3 8 9 2 3 3 6 11 6 4 7 10 8 4 6 5 7 nan
nan 7 6 5 5 6 7 7 9 14 9 8 9 3 5 7 8 11 7 7 9 7 7 7 9 10 9 7 6 6 5 7 12 5 1 2 6 -0 0 5 4 6 7 6 7 6 5 5 nan
nan 6 7 7 9 6 6 7 7 6 5 11 10 6 7 14 9 5 7 6 5 5 7 7 7 7 8 9 10 9 9 11 8 6 3 5 2 4 3 1 6 6 6 5 7 6 5 5 nan
nan 6 7 10 7 5 2 7 7 7 8 7 7 9 12 14 6 3 4 5 6 7 7 7 6 6 7 8 11 13 13 14 6 1 -0 0 3 7 8 7 12 1 4 6 6 5 5 9 nan
nan 5 7 7 2 4 4 3 5 7 4 7 6 6 14 11 5 1 2 5 4 6 7 7 7 7 7 7 8 9 9 7 6 8 5 3 6 6 7 5 8 8 3 4 4 3 2 4 nan
nan 5 2 4 5 5 3 6 10 4 6 6 3 8 7 6 6 4 3 7 7 4 7 8 7 8 6 6 6 6 8 10 11 9 7 6 6 5 6 7 8 12 3 3 5 2 4 7 nan
nan 12 4 4 6 6 6 4 6 4 7 6 8 10 8 7 5 5 3 6 9 8 7 7 8 8 6 6 7 7 7 7 10 10 8 4 7 8 7 9 9 7 5 7 5 5 8 8 nan
nan 5 7 6 4 5 6 5 10 2 14 8 12 11 8 7 3 6 6 6 8 8 8 8 7 8 9 7 7 7 8 7 8 8 6 5 7 7 7 8 7 6 8 7 6 6 6 8 nan
nan 9 6 7 9 9 10 12 11 8 12 8 8 9 12 9 6 3 7 7 7 8 9 7 8 8 7 7 7 7 8 8 7 7 8 7 6 7 7 7 7 6 8 8 8 7 6 7 nan
nan 9 16 14 12 9 14 7 6 8 7 7 7 10 11 12 10 8 7 7 8 8 9 7 7 7 7 8 7 7 8 8 8 9 10 8 5 9 8 6 7 7 8 6 7 7 7 10 nan
nan 8 11 11 9 10 10 4 8 13 7 6 7 10 12 17 12 9 9 10 10 11 8 5 7 8 7 8 7 8 8 8 7 10 13 10 8 7 7 8 7 8 8 7 7 5 7 9 nan
nan 8 5 6 9 11 -0 7 6 6 8 8 8 8 13 14 11 14 14 11 9 7 7 6 7 8 7 7 8 9 10 7 8 8 14 14 9 8 8 6 10 8 6 9 5 7 10 7 nan
nan 7 7 10 7 7 3 6 4 7 6 6 4 7 15 17 17 10 10 10 9 7 7 7 7 8 7 6 8 8 8 8 10 10 11 12 13 12 7 7 9 8 6 7 9 6 7 9 nan
nan 6 3 8 7 8 7 4 6 8 5 9 7 7 11 13 14 13 10 8 7 8 9 8 6 6 6 6 7 8 9 8 10 15 13 10 12 10 6 8 8 8 9 8 6 6 6 5 nan
nan 5 8 1 7 4 7 5 9 12 12 9 6 7 13 13 8 8 7 8 8 7 7 7 7 7 5 7 8 9 9 9 9 13 12 13 13 6 7 9 8 7 7 10 8 3 2 11 nan
nan 12 7 5 8 7 12 13 16 13 8 8 8 9 13 11 7 7 8 5 6 9 8 8 8 5 7 6 6 7 7 9 9 12 14 12 10 8 9 9 7 7 6 8 8 5 6 7 nan
nan 13 6 8 8 13 3 12 16 11 9 7 7 12 12 10 10 9 7 8 8 6 8 10 8 6 9 7 8 7 5 7 9 11 15 15 9 6 9 11 8 6 8 8 7 5 6 10 nan
nan 9 11 10 6 6 6 11 10 11 10 9 11 12 13 14 12 10 8 7 8 10 9 8 7 6 9 8 8 8 9 10 8 11 14 11 9 7 6 9 9 8 9 12 9 7 8 7 nan
nan 12 10 12 12 9 16 5 5 9 3 9 13 10 10 14 13 11 10 10 9 8 9 11 9 5 5 7 9 10 9 9 9 8 9 9 8 10 9 6 6 7 10 11 10 11 11 8 nan
nan 9 7 9 11 15 12 6 5 5 11 3 8 20 23 16 13 12 9 7 8 8 6 10 8 6 8 8 7 10 10 9 9 8 7 8 8 10 13 8 5 6 6 7 8 9 9 12 nan
nan 5 4 6 7 12 9 8 12 9 8 5 5 18 27 24 22 14 8 7 8 8 8 10 8 7 6 9 8 9 8 9 10 9 8 8 10 11 11 8 8 9 8 4 4 5 5 7 nan
nan 9 4 3 7 7 7 6 10 13 4 4 4 4 18 24 17 16 15 13 9 8 10 9 7 8 9 7 7 8 8 9 10 11 9 9 9 13 13 11 8 9 10 7 6 7 5 4 nan
nan 3 11 14 13 2 6 10 8 6 9 3 4 4 9 17 19 12 10 11 11 11 9 9 10 9 8 8 7 8 8 8 8 9 10 9 9 10 10 11 11 8 8 9 6 7 9 5 nan
nan 6 9 11 12 13 8 8 10 13 12 7 2 4 3 8 16 22 17 10 11 10 12 10 8 9 8 9 8 9 9 8 8 9 8 9 10 10 9 8 8 8 8 6 6 6 8 7 nan
nan nan nan nan nan nan nan nan nan nan nan nan nan nan nan nan nan nan nan nan nan nan nan nan nan nan nan nan nan nan nan nan nan nan nan nan nan nan nan nan nan nan nan nan nan nan nan nan nan
CAPE
0 0 0 0 0 0 0 0 0 0 0 0 0 0 0 0 0 0 0 921 1086 1343 1474 1341 1553 1727 1735 1846 1832 1977 2012 2098 2086 1960 1893 1942 1961 1904 1886 1950 1909 1849 1716 1338 1364 1555 1377 1139 1176
0 0 0 0 0 0 0 0 0 0 0 0 0 0 0 0 23 70 314 846 1119 1403 1512 1337 1473 1685 1826 1885 1985 2043 2183 2161 2040 1994 1925 1895 1901 1884 1905 1924 1793 1563 1004 1546 1453 1389 1112 1168 1127
0 0 0 0 0 0 0 0 0 0 0 0 0 0 0 0 109 120 64 1209 1118 1393 1583 1445 1444 1610 1847 1934 2015 2120 2206 2136 2010 1952 1931 1842 1787 1777 1856 1798 1688 1498 990 900 1510 1368 1057 967 703
0 0 0 0 0 0 0 0 0 0 0 0 0 0 0 0 35 159 200 1406 1240 1173 1542 1655 1382 1518 1851 2014 2077 2149 2237 2112 1995 1951 1849 1875 1740 1900 1853 1603 1421 1279 1121 1494 1396 1006 890 632 450
0 0 0 0 0 0 0 0 0 0 0 0 0 0 0 6 53 166 462 1528 1241 1068 1125 1396 1322 1489 1887 2145 2169 2113 2122 1991 1869 1426 953 826 1206 1204 1234 1210 1313 1246 1141 1333 1050 748 644 404 177
0 0 0 0 0 0 0 0 0 0 0 0 0 0 0 0 177 54 3 755 874 1080 1061 1171 1356 1507 1804 2043 2083 2046 1974 1876 1586 1007 893 876 623 572 612 708 903 995 737 628 595 477 444 96 15
0 0 0 0 0 0 0 0 0 0 0 0 0 0 0 0 0 54 117 351 844 923 891 875 1145 1578 1821 1902 1883 1837 1753 1547 985 623 569 389 386 306 325 257 419 479 592 628 445 335 140 9 0
0 0 0 0 0 0 0 0 0 0 0 0 0 0 0 0 25 192 191 192 452 584 540 614 690 898 1045 1381 1705 1566 1459 1023 455 234 103 207 171 133 31 182 269 338 507 482 343 180 32 0 0
0 0 0 0 0 0 0 0 0 0 0 0 0 0 0 0 238 230 174 12 51 241 339 295 429 436 323 477 667 834 657 536 375 214 81 115 128 171 183 120 174 282 368 352 252 81 0 0 0
0 0 0 0 0 0 0 0 0 0 0 0 0 16 0 141 314 349 233 143 53 144 124 230 246 191 60 158 211 83 224 230 261 135 73 28 46 71 58 66 140 210 287 213 131 6 0 0 0
0 0 0 0 0 0 0 0 0 0 0 0 0 0 72 138 284 263 243 136 108 118 62 31 20 25 43 13 11 38 105 104 71 65 21 1 25 35 0 7 92 106 124 23 3 0 0 0 0
0 0 0 0 0 0 0 0 0 0 0 0 0 0 86 99 190 191 183 79 161 55 30 0 0 40 73 1 0 0 1 1 0 1 1 0 0 0 2 88 139 38 0 0 0 0 0 0 0
0 0 0 0 0 0 0 0 0 0 0 0 0 0 90 138 115 115 105 21 109 78 1 0 0 5 3 1 1 0 1 1 1 0 0 0 0 7 15 93 56 6 0 0 0 0 0 0 0
0 0 0 0 0 0 0 0 0 0 0 0 0 0 0 62 110 3 0 0 67 119 0 0 0 0 0 1 1 1 1 1 1 1 0 0 0 6 37 65 44 2 0 0 0 0 0 0 0
0 0 0 0 0 0 0 0 0 0 0 0 0 0 0 0 0 0 0 3 74 88 0 0 0 0 0 0 1 1 1 1 2 2 1 0 8 10 78 77 12 2 0 0 0 0 0 0 0
0 0 0 0 0 0 0 0 0 0 0 0 0 0 0 0 0 0 0 3 84 6 0 0 0 0 0 0 1 5 1 1 1 2 2 2 21 33 16 6 0 0 0 0 0 0 0 0 0
0 0 0 0 0 0 0 0 0 0 0 0 0 0 0 0 0 0 0 0 24 0 0 0 0 0 0 0 0 4 1 0 1 4 3 4 7 47 5 0 0 0 0 0 0 0 0 0 0
0 0 0 0 0 0 0 0 0 0 0 0 0 0 0 0 0 0 0 0 4 0 0 0 0 0 0 0 0 2 1 1 7 6 12 0 23 1 0 0 0 0 0 0 0 0 0 0 0
0 0 0 0 0 0 0 0 0 0 0 0 0 0 0 0 0 0 0 0 0 0 0 0 0 0 0 0 1 1 11 1 1 1 2 8 0 0 0 0 0 0 0 0 0 0 0 0 0
0 0 0 0 0 0 0 0 0 0 0 0 0 0 0 0 0 0 0 0 0 0 0 0 0 0 0 0 0 0 1 1 0 1 2 1 0 0 0 0 0 0 0 0 0 0 0 0 0
0 0 0 0 0 0 0 0 0 0 0 0 0 0 0 0 0 0 0 0 0 0 0 0 0 0 0 0 0 0 0 9 1 1 7 3 1 0 0 0 0 0 0 0 0 0 0 0 0
0 0 0 0 0 0 0 0 0 0 0 0 0 0 0 0 0 0 1 0 0 0 0 0 0 0 0 0 0 1 1 11 8 1 1 3 0 0 0 0 0 0 0 0 0 0 0 0 0
0 0 0 0 0 0 0 0 0 0 0 0 0 0 0 0 0 2 0 0 0 0 0 0 0 0 0 0 1 0 13 13 5 1 1 0 2 0 0 0 0 0 0 0 0 0 0 0 0
0 0 0 0 0 0 0 0 0 0 0 0 0 0 0 0 0 0 0 0 0 0 0 0 0 0 0 0 0 1 1 1 8 2 1 1 0 1 0 0 0 0 0 0 0 0 0 0 0
0 0 0 0 0 0 0 0 0 0 0 0 0 0 0 0 0 0 0 0 0 1 0 0 0 0 0 0 0 0 0 0 0 1 1 1 0 1 1 0 0 4 10 21 15 9 8 0 0
0 0 0 0 0 0 0 0 0 0 0 0 0 0 0 0 0 0 0 0 0 0 0 0 0 0 1 0 0 0 0 0 0 0 0 0 0 0 1 1 0 0 0 4 15 26 21 1 4
0 0 0 0 0 0 0 0 0 0 0 0 0 0 0 18 4 0 0 0 0 0 0 0 0 0 0 0 0 0 0 0 0 0 0 0 0 1 0 0 0 0 0 0 0 1 0 5 10
0 0 0 0 0 0 0 0 0 0 0 14 3 0 0 0 0 0 0 0 0 0 0 0 0 0 0 0 0 0 0 0 0 0 0 0 1 1 0 0 0 1 1 1 0 1 0 7 10
0 0 0 0 0 0 0 0 0 0 15 8 5 0 0 0 0 0 0 0 0 0 0 0 0 0 0 0 0 0 0 0 0 0 0 0 0 1 1 0 0 0 0 0 0 0 0 1 4
0 0 0 0 0 0 0 0 0 0 6 0 0 0 0 0 0 0 0 0 0 0 0 0 0 0 0 0 0 0 0 0 0 0 0 0 0 0 0 1 0 0 0 0 0 0 0 4 11